HISAKI (SPRINT-A) (39253 NORAD) Tracking and Keplerian Element Data

This shows tracking and keplerian element data for the satellite.

Feedback or suggestion? Click here.




ElementValue
Catalog39253
NameHISAKI (SPRINT-A)
Epoch Orbit24041
Epoch Day202.32406633
Epoch Year2018
RAAN136.4958
Inclination29.7192
Eccentricity0.0136748
Argument of Perigee13.2149
Mean Anonmoly347.1956
Mean Motion13.5519328
Decay Rate1.25E-06
L11 39253U 13049A 18202.32406633 .00000125 00000-0 84306-4 0 9992
L22 39253 29.7192 136.4958 0136748 13.2149 347.1956 13.55193280240412

Live tracking and technical data element details for HISAKI (SPRINT-A) (NORAD 39253). HISAKI (SPRINT-A) can be tracked NOW for your location showing map with azimuth and elevation plus other details from your city location.

Track the satellite on the map from your city or location and see movement details for azimuth, elevation, latitude, longitude, range, height, and movement on the map or in text.







IsCatalogInMostPopularTable: catalog: 39253, numindb: 59
Update: records affected: 1



GetName: 39253 HISAKI (SPRINT-A)

Hit Count: updated at: Mon, 23 Jul 2018 07:48:05 GMT